Satellite: OKEAN-4
Catalog number: 23317
Epoch time:      09245.91073957
Element set:    0007
Inclination:      082.5375 deg
RA of node:       261.9538 deg
Eccentricity:    0.0023927
Arg of perigee:   106.9448 deg
Mean anomaly:     253.4385 deg
Mean motion:   14.82717983 rev/day
Decay rate:       2.76e-06 rev/day^2
Epoch rev:           80388
Checksum:              339

Satellite: NOAA-14
Catalog number: 23455
Epoch time:      09246.30346552
Element set:     744
Inclination:      098.9045 deg
RA of node:       323.6919 deg
Eccentricity:    0.0008849
Arg of perigee:   334.8187 deg
Mean anomaly:     025.2562 deg
Mean motion:   14.13767537 rev/day
Decay rate:      -2.83e-06 rev/day^2
Epoch rev:           75696
Checksum:              342

Satellite: NOAA-15
Catalog number: 25338
Epoch time:      09245.30199821
Element set:      67
Inclination:      098.5908 deg
RA of node:       232.8434 deg
Eccentricity:    0.0010401
Arg of perigee:   187.7285 deg
Mean anomaly:     172.3770 deg
Mean motion:   14.24781816 rev/day
Decay rate:       -4.8e-07 rev/day^2
Epoch rev:           58775
Checksum:              327

Satellite: RESURS
Catalog number: 25394
Epoch time:      09245.93320460
Element set:    0314
Inclination:      098.3348 deg
RA of node:       274.3076 deg
Eccentricity:    0.0001982
Arg of perigee:   015.7944 deg
Mean anomaly:     344.3297 deg
Mean motion:   14.24188675 rev/day
Decay rate:       -2.7e-07 rev/day^2
Epoch rev:           57946
Checksum:              321

Satellite: FENGYUN1
Catalog number: 25730
Epoch time:      09245.95712381
Element set:    0863
Inclination:      098.7588 deg
RA of node:       213.7999 deg
Eccentricity:    0.0022889
Arg of perigee:   359.0899 deg
Mean anomaly:     001.0226 deg
Mean motion:   14.07971298 rev/day
Decay rate:       5.41e-06 rev/day^2
Epoch rev:           53126
Checksum:              343

Satellite: OKEAN-0
Catalog number: 25860
Epoch time:      09245.51315776
Element set:    0776
Inclination:      097.7945 deg
RA of node:       223.6530 deg
Eccentricity:    0.0000764
Arg of perigee:   043.3127 deg
Mean anomaly:     316.8139 deg
Mean motion:   14.73585677 rev/day
Decay rate:        8.0e-08 rev/day^2
Epoch rev:           54453
Checksum:              320

Satellite: NOAA-16
Catalog number: 26536
Epoch time:      09245.78499536
Element set:    0546
Inclination:      099.1798 deg
RA of node:       251.3397 deg
Eccentricity:    0.0011390
Arg of perigee:   066.5077 deg
Mean anomaly:     293.7282 deg
Mean motion:   14.12531780 rev/day
Decay rate:       2.71e-06 rev/day^2
Epoch rev:           46125
Checksum:              336

Satellite: NOAA-17
Catalog number: 27453
Epoch time:      09245.91977640
Element set:    0545
Inclination:      098.4771 deg
RA of node:       302.2844 deg
Eccentricity:    0.0010656
Arg of perigee:   254.9971 deg
Mean anomaly:     105.0036 deg
Mean motion:   14.24087305 rev/day
Decay rate:        2.2e-07 rev/day^2
Epoch rev:           37381
Checksum:              306

Satellite: NOAA-18
Catalog number: 28654
Epoch time:      09245.96335776
Element set:    0031
Inclination:      098.9100 deg
RA of node:       188.6151 deg
Eccentricity:    0.0014921
Arg of perigee:   140.6731 deg
Mean anomaly:     219.5532 deg
Mean motion:   14.11284011 rev/day
Decay rate:       3.68e-06 rev/day^2
Epoch rev:           22092
Checksum:              292

Satellite: NOAA-19
Catalog number: 33591
Epoch time:      09245.96008318
Element set:    0236
Inclination:      098.7498 deg
RA of node:       189.7148 deg
Eccentricity:    0.0014702
Arg of perigee:   026.7850 deg
Mean anomaly:     333.4075 deg
Mean motion:   14.10984167 rev/day
Decay rate:       2.56e-06 rev/day^2
Epoch rev:           02940
Checksum:              326

/EX
SB KEPS @ AMSAT  $ORB09246.M
Orbital Elements  09246.MISC

HR AMSAT ORBITAL ELEMENTS FOR MANNED AND MISCELLANEOUS SATELLITES
FROM WA5QGD FORT WORTH,TX September 3, 2009
Send Subscribe/unsubscribe to KEPS at 
http://www.amsat.org/mailman/listinfo/keps
BID: ORB09246.M
TO ALL RADIO AMATEURS BT

Satellite: HUBBLE
Catalog number: 20580
Epoch time:      09244.65406660
Element set:    0441
Inclination:      028.4720 deg
RA of node:       323.2336 deg
Eccentricity:    0.0003224
Arg of perigee:   017.1890 deg
Mean anomaly:     342.8819 deg
Mean motion:   15.00825712 rev/day
Decay rate:       2.61e-06 rev/day^2
Epoch rev:           86135
Checksum:              265

Satellite: ISS
Catalog number: 25544
Epoch time:      09245.64853169
Element set:    0536
Inclination:      051.6400 deg
RA of node:       269.1982 deg
Eccentricity:    0.0009342
Arg of perigee:   045.4733 deg
Mean anomaly:     052.9797 deg
Mean motion:   15.73928673 rev/day
Decay rate:     1.2336e-04 rev/day^2
Epoch rev:           61815
Checksum:              326

Satellite: CO-58
Catalog number: 28895
Epoch time:      09245.72449255
Element set:     385
Inclination:      098.0469 deg
RA of node:       134.1250 deg
Eccentricity:    0.0018888
Arg of perigee:   104.6264 deg
Mean anomaly:     255.7032 deg
Mean motion:   14.59792155 rev/day
Decay rate:       2.21e-06 rev/day^2
Epoch rev:           20504
Checksum:              325

